Home > Weather > Alta > Past weeks

Flag for Norway Past Weather in Alta, Norway — Yesterday and Last 2 Weeks

Now
50 °F

Cool.


Feels Like: 48 °F
Forecast: 45 / 53 °F
Wind: 5 mph from Southwest

Location: Alta Lufthavn

Current Time: Aug 26, 2016 at 12:19:44 AM

Latest Report: Aug 25, 2016 at 11:00 PM


Visibility: N/A

Pressure: 29.91 "Hg

Humidity: 68%

Dew Point: 39 °F

Location of AltaLocation

Past Weather in Alta — Graph

°F

Alta Temperature Yesterday

Maximum temperature yesterday: 54 °F (at 11:00 AM)
Minimum temperature yesterday: 41 °F (at 1:00 AM)
Average temperature yesterday: 49 °F

High & Low Weather Summary for the Past Weeks

 TemperatureHumidityPressure
High75 °F (Aug 18, 4:00 PM)97% (Aug 22, 4:00 AM)30.29 "Hg (Aug 22, 4:00 AM)
Low36 °F (Aug 24, 5:00 AM)25% (Aug 18, 1:00 PM)29.66 "Hg (Aug 12, 9:00 PM)
Average54 °F73%30.02 "Hg
* Reported Aug 10 11:00 PM — Aug 25 11:00 PM, Alta, Weather by CustomWeather, © 2016

Note: Actual official high and low records may vary slightly from our data, if they occured in-between our weather recording intervals... More about our weather records

Advertising

Alta Weather History for the Previous 24 Hours

Scroll right to see more
 ConditionsComfort  
Time TempWeatherWind HumidityBarometerVisibility
11:00 PM
Thu, Aug 25
50 °FCool.5 mph68%29.91 "HgN/A
10:00 PM49 °FCool.2 mph73%29.92 "HgN/A
9:00 PM49 °FCool.1 mph73%29.92 "HgN/A
8:00 PM50 °FCool.1 mph68%29.92 "HgN/A
7:00 PM51 °FCool.2 mph63%29.92 "HgN/A
6:00 PM51 °FCool.5 mph59%29.92 "HgN/A
5:00 PM51 °FCool.3 mph71%29.92 "HgN/A
4:00 PM50 °FCool.9 mph76%29.92 "HgN/A
3:00 PM52 °FCool.7 mph73%29.90 "HgN/A
2:00 PM51 °FCool.6 mph73%29.90 "HgN/A
1:00 PM51 °FCool.3 mph75%29.90 "HgN/A
12:00 PM53 °FCool.7 mph73%29.88 "HgN/A
11:00 AM54 °FCool.1 mph70%29.88 "HgN/A
10:00 AM53 °FCool.3 mph75%29.87 "HgN/A
9:00 AM52 °FCool.5 mph75%29.86 "HgN/A
8:00 AM53 °FCool.3 mph73%29.87 "HgN/A
7:00 AM50 °FCool.1 mph74%29.88 "HgN/A
6:00 AM49 °FCool.3 mph74%29.89 "HgN/A
5:00 AM49 °FCool.3 mph74%29.91 "HgN/A
4:00 AM49 °FCool.6 mph74%29.93 "HgN/A
3:00 AM47 °FCool.3 mph77%29.96 "HgN/A
2:00 AM42 °FQuite cool.1 mph95%29.98 "HgN/A
1:00 AM41 °FQuite cool.1 mph93%30.01 "HgN/A
12:00 AM42 °FQuite cool.2 mph93%30.03 "HgN/A
Weather by CustomWeather, © 2016

See weather overviewHow to use our weather pages